Theta_e
295 295 296 295 294 292 290 288 288 287 286 284 283 283 281 281 283 281 282 281 281 280 281 280 280 279 281 279 279 280 280 280 280 279 279 279 278 278 279 278 277 277
295 296 296 294 292 291 289 288 287 286 285 283 282 281 282 281 282 281 281 281 281 280 281 280 280 280 279 279 279 279 279 279 278 282 279 278 278 278 278 278 277 277
295 295 293 292 291 289 288 287 286 285 284 283 282 282 283 282 281 281 280 279 280 280 280 280 279 280 279 278 279 278 278 279 278 279 279 278 279 278 278 278 277 277
295 294 293 291 290 289 288 286 285 284 283 283 281 282 282 283 281 280 279 282 280 280 280 280 280 279 279 278 278 278 278 279 279 278 278 278 279 278 277 277 278 277
293 293 292 291 290 289 288 286 284 284 283 282 282 281 282 281 280 279 279 279 279 279 278 279 279 279 279 278 278 278 279 278 279 278 278 277 278 278 278 278 277 276
292 292 291 290 290 289 287 286 285 284 282 281 281 282 280 281 279 279 279 279 279 279 279 278 278 278 278 278 278 278 278 279 278 278 278 277 277 278 278 278 276 276
291 291 290 290 289 289 287 285 284 283 282 282 281 280 280 279 279 278 278 278 278 279 278 278 278 278 278 278 277 277 278 279 278 278 278 277 278 277 277 277 277 276
290 290 290 289 289 288 286 285 283 282 282 281 280 280 280 279 279 279 278 278 278 278 278 278 278 277 278 277 277 277 277 279 279 278 277 277 277 277 277 278 277 276
290 289 289 289 288 287 285 284 282 282 282 281 280 280 280 279 279 278 278 277 277 278 277 277 277 277 278 278 277 277 277 277 278 277 277 277 277 277 277 277 276 276
289 289 288 288 287 286 284 282 282 281 282 281 280 280 279 279 279 278 278 277 278 277 277 277 277 278 277 277 277 277 277 277 277 277 277 277 277 277 277 276 276 275
288 288 288 287 286 285 283 282 281 281 281 281 280 280 279 279 279 278 278 278 279 277 277 277 277 277 277 276 277 277 277 277 277 277 277 277 278 277 280 277 276 275
288 287 287 286 285 284 283 282 281 281 281 281 280 280 279 279 279 278 278 277 277 277 276 276 276 276 276 276 276 277 277 277 278 278 278 278 277 278 277 277 275 274
287 287 286 286 284 283 282 282 281 281 281 280 280 280 279 279 279 278 279 278 277 277 276 276 276 276 275 275 276 276 276 277 278 278 278 278 278 277 277 276 274 274
286 286 285 284 283 283 282 282 281 281 281 280 280 280 279 279 279 279 278 277 277 276 277 276 275 275 275 275 276 276 277 278 278 278 278 278 277 277 277 275 274 274
286 285 284 284 283 283 282 281 281 281 281 280 280 279 280 279 279 279 278 277 276 276 276 276 276 276 276 276 277 277 278 278 278 279 278 278 277 276 276 274 274 274
286 284 284 283 283 282 282 281 281 281 280 280 280 279 279 279 278 278 277 277 276 276 275 277 277 278 280 281 281 279 277 279 279 278 278 277 276 275 275 274 274 273
284 284 283 283 283 282 282 281 281 281 280 280 280 279 279 278 278 277 277 276 276 276 275 277 278 278 282 282 281 282 280 278 277 278 278 277 275 275 274 275 274 273
284 284 283 283 283 282 282 281 281 280 280 279 279 279 279 278 277 277 277 276 276 275 275 276 276 281 283 282 282 283 283 279 277 278 278 276 275 275 275 275 274 274
284 284 283 283 283 282 282 281 281 280 280 279 279 279 278 277 277 276 276 276 276 275 275 276 275 283 283 283 282 283 283 281 277 277 278 275 274 275 275 274 274 274
284 284 283 283 283 282 282 281 281 280 280 280 279 278 278 277 276 276 276 276 276 276 276 275 275 282 284 283 282 283 283 282 277 277 277 276 275 274 275 274 274 273
284 284 283 283 282 282 282 281 281 280 280 279 279 279 278 278 277 277 277 277 276 276 276 276 276 283 284 283 283 283 283 282 277 278 278 276 275 275 274 274 274 274
285 284 283 283 282 282 282 281 281 281 280 279 279 278 278 277 277 277 277 277 276 276 276 276 276 284 284 283 283 283 283 280 277 277 277 276 275 274 274 273 273 273
285 284 283 283 283 282 282 281 281 281 280 280 279 279 278 278 278 278 278 277 277 276 276 276 275 282 284 283 283 283 282 277 276 277 276 275 275 274 274 273 273 273
285 285 284 283 283 282 282 282 282 281 281 281 280 279 278 278 278 278 278 278 277 277 276 276 275 279 284 283 283 283 281 277 276 276 275 275 275 274 274 273 273 276
286 285 284 284 283 283 283 282 282 282 281 281 280 280 279 279 279 278 278 278 277 277 278 277 276 277 284 284 283 283 281 277 276 274 275 274 273 273 273 274 273 275
286 286 285 284 284 283 283 283 282 281 281 281 280 280 280 279 279 279 278 278 277 277 278 278 276 276 280 284 283 283 283 277 276 274 274 274 272 273 271 271 272 271
Wind_Speed
7 6 7 7 7 6 6 6 5 5 5 5 5 4 5 3 1 1 1 3 1 1 2 1 3 3 3 3 4 4 3 3 3 1 2 3 3 3 3 3 4 3
7 7 6 6 6 6 6 6 5 6 5 5 5 5 4 3 2 2 2 1 0 1 0 2 2 2 2 3 3 4 2 3 3 3 4 4 3 3 3 4 3 4
7 7 8 8 8 8 7 6 6 5 5 5 5 4 3 3 2 2 3 2 1 1 1 1 2 2 2 3 3 3 2 3 3 3 3 3 3 3 3 4 4 4
7 7 7 8 8 9 7 7 6 6 5 5 4 4 3 2 3 3 2 1 0 0 0 0 0 1 1 3 3 3 3 2 3 3 3 3 2 3 3 2 2 3
8 8 7 8 8 8 7 7 6 6 4 5 4 4 3 3 3 3 2 1 1 0 1 1 0 0 0 2 3 2 2 3 2 2 2 3 2 1 1 1 2 3
7 8 8 8 8 9 8 7 6 6 6 5 5 4 4 4 3 3 2 1 1 0 0 1 1 1 1 2 3 1 2 1 2 2 1 2 2 1 1 0 1 1
9 8 9 8 8 8 8 7 6 6 5 5 4 4 4 4 4 3 3 2 1 0 0 0 1 1 1 2 2 2 3 1 1 2 2 2 1 2 1 0 0 1
9 7 8 8 8 8 8 7 6 6 5 5 4 4 4 4 4 4 3 2 1 0 0 1 0 1 1 1 2 2 3 2 2 2 3 2 2 2 1 0 0 1
9 8 8 8 8 8 8 7 6 6 5 6 5 5 4 4 4 4 3 3 2 2 1 1 1 1 1 1 1 1 2 3 3 3 3 3 3 2 1 1 2 1
9 8 9 8 8 8 8 6 6 6 5 5 5 5 5 4 4 4 4 3 2 2 2 2 1 1 1 1 1 1 2 3 3 3 3 3 3 2 2 1 2 2
9 9 9 9 8 8 8 7 7 7 5 5 6 5 4 4 4 4 4 4 3 3 2 2 2 1 1 2 1 1 2 3 3 3 3 3 3 2 2 1 1 1
10 9 10 10 9 8 8 8 8 7 6 5 5 6 5 5 5 4 4 4 4 4 2 2 2 2 2 3 2 2 3 3 3 4 4 3 3 2 2 1 2 2
10 10 10 9 9 8 8 7 7 7 7 6 5 6 6 6 5 5 4 4 4 4 4 3 2 2 3 3 3 2 3 4 4 4 4 3 3 3 1 3 2 2
9 9 8 8 7 8 8 7 7 7 7 5 5 6 6 6 6 6 5 4 4 4 4 3 3 3 4 3 2 2 3 4 4 3 3 3 3 2 1 3 2 1
8 7 7 7 8 8 8 7 7 7 6 6 5 5 5 5 5 5 5 4 4 4 4 4 4 4 3 1 0 1 2 3 3 4 4 4 3 2 1 3 2 2
9 7 8 7 8 9 8 8 7 7 7 6 6 5 5 5 5 5 5 5 5 4 4 4 4 3 4 5 4 3 3 3 3 4 4 3 3 2 0 2 3 2
9 9 8 9 8 8 7 8 8 7 7 6 6 6 6 6 5 6 5 5 5 5 5 5 5 4 7 8 8 8 4 3 3 4 4 3 2 2 2 1 1 2
9 9 9 9 8 9 9 8 7 7 7 7 7 7 6 6 6 6 6 5 5 5 5 6 5 7 11 10 9 9 7 4 3 3 4 3 2 1 1 0 0 1
9 10 10 9 9 9 8 8 8 7 8 8 9 8 5 7 7 6 7 6 6 6 6 6 5 9 12 11 10 9 9 6 3 3 4 3 3 2 1 1 1 1
10 10 10 9 9 8 8 8 8 10 9 8 7 6 8 7 7 8 6 7 7 7 6 5 5 8 13 11 10 10 9 6 3 3 4 4 3 3 2 1 1 1
10 10 10 9 9 9 9 9 9 8 8 8 8 9 9 9 9 8 8 7 7 6 6 6 6 10 13 12 11 10 10 7 3 4 4 4 4 3 3 2 1 1
11 11 10 9 9 9 9 10 9 10 10 8 7 7 7 6 6 6 7 7 7 7 6 7 5 12 13 12 12 11 10 4 3 4 5 4 4 3 3 3 3 2
11 11 11 10 10 10 10 10 10 10 9 7 8 8 8 8 8 8 7 7 7 7 8 7 6 9 13 12 12 12 7 3 3 4 5 4 4 3 3 3 3 3
11 11 11 11 10 12 12 11 10 8 9 8 10 9 9 9 8 7 7 7 8 8 9 8 7 8 13 12 13 13 8 5 4 5 4 4 4 3 3 3 3 6
11 11 11 11 12 12 11 11 11 12 9 8 8 8 8 7 7 7 7 7 8 8 10 10 7 7 12 13 13 13 8 5 4 3 4 4 3 3 3 3 2 3
10 12 12 12 13 11 10 11 9 7 8 9 8 8 8 7 7 8 8 7 7 8 8 8 7 5 8 14 13 13 12 6 5 4 5 5 4 5 3 2 2 3
Wind_Direction
130 132 134 131 136 136 129 119 117 108 104 111 119 116 118 128 96 90 90 76 66 57 17 0 25 18 349 343 3 330 341 32 355 60 353 329 317 322 336 8 351 350
132 131 123 121 117 108 104 113 115 113 104 105 107 108 110 121 127 90 63 41 89 125 71 26 23 7 0 346 331 326 12 3 358 18 359 339 325 0 8 4 6 6
131 129 129 133 128 118 115 112 110 106 108 111 110 116 130 125 133 87 82 37 7 69 59 49 26 345 0 322 330 322 13 340 50 8 345 335 339 25 16 19 11 10
129 130 131 129 124 123 121 114 106 106 114 111 119 133 131 146 119 118 126 194 63 310 120 85 25 333 353 320 349 329 354 355 89 32 344 342 349 49 19 20 9 358
136 131 129 126 123 123 122 120 124 133 129 126 127 137 140 144 146 148 167 160 193 88 60 356 335 296 298 334 332 332 352 23 24 24 338 322 334 58 316 37 12 15
127 130 132 132 136 132 128 132 137 130 128 138 161 161 153 162 152 143 135 158 118 159 42 18 7 333 4 315 318 337 351 30 332 320 323 308 317 317 268 253 67 5
138 138 136 135 135 131 127 134 130 130 143 156 153 149 145 151 140 149 163 160 165 68 113 71 324 303 306 324 325 350 324 301 276 287 284 280 270 300 296 106 34 338
138 136 136 139 139 130 131 135 139 144 146 145 156 160 147 164 151 157 158 156 173 142 137 225 263 273 281 345 332 334 330 308 294 301 308 304 296 290 305 317 307 303
139 140 143 144 140 133 137 143 145 143 146 157 162 157 158 158 156 161 175 170 181 190 182 204 226 259 260 258 280 313 320 314 310 313 304 309 310 302 317 321 325 312
142 144 146 148 144 141 147 151 147 150 157 162 161 155 158 170 154 168 166 178 182 193 206 211 240 234 255 255 241 257 280 290 293 296 296 288 288 296 301 297 286 310
149 151 152 154 149 148 155 154 153 155 166 170 158 160 168 156 166 162 178 190 195 205 197 215 216 207 237 264 266 234 256 270 280 280 285 281 271 267 273 271 295 2
155 158 160 160 155 155 160 160 157 160 169 177 165 165 166 165 172 179 187 200 203 196 186 206 209 210 224 237 241 254 266 269 266 273 270 270 272 263 252 274 77 67
164 166 164 163 159 160 159 160 162 165 170 180 174 165 171 173 175 179 196 201 205 182 190 202 207 223 232 239 242 249 259 263 267 266 265 270 273 260 237 104 95 93
169 166 165 162 156 157 162 165 164 166 176 178 168 170 180 180 179 179 195 194 201 185 198 194 201 228 239 237 235 247 265 274 272 271 277 280 274 276 140 123 118 121
162 163 162 159 156 158 163 169 169 169 172 174 176 183 183 187 179 174 182 194 206 195 196 188 204 227 225 175 66 325 319 314 308 294 284 277 284 288 150 136 130 138
162 162 166 162 161 167 171 171 170 169 173 177 182 186 188 185 177 179 180 192 200 206 202 196 205 219 198 197 205 213 257 275 291 295 289 285 297 295 263 158 152 154
161 169 165 170 171 166 170 172 173 171 176 181 182 185 190 187 177 181 191 197 199 202 207 205 203 208 200 213 223 232 233 243 274 289 293 290 302 286 252 219 178 172
169 167 170 173 169 175 175 176 170 172 181 185 184 191 195 184 185 192 192 198 207 210 208 208 206 201 206 211 220 230 235 234 249 277 285 284 289 293 295 205 221 233
168 173 176 174 180 176 175 173 175 180 187 188 195 194 184 189 193 187 198 197 200 211 218 217 211 198 203 206 216 226 236 239 235 267 278 282 281 272 260 258 257 280
173 175 179 182 177 176 175 178 180 192 195 194 187 185 194 196 190 195 198 199 200 206 215 218 219 197 200 205 211 221 230 234 223 252 272 271 265 256 221 205 225 243
176 179 182 180 180 178 178 184 190 195 196 195 189 193 195 195 192 195 202 201 200 199 208 219 221 200 201 201 207 216 224 229 222 250 256 258 249 228 204 191 199 226
178 181 181 180 180 180 183 190 194 198 200 194 190 198 202 196 202 194 199 202 200 195 203 223 222 200 197 200 205 213 217 210 217 249 256 250 248 224 193 187 182 199
181 179 181 182 183 183 190 194 197 203 203 186 191 196 196 199 200 199 197 195 196 196 202 218 220 202 193 197 202 208 208 188 218 247 249 244 241 216 179 182 186 195
183 180 183 184 184 191 194 198 200 202 201 188 192 193 200 203 198 197 196 194 194 202 202 207 216 204 197 195 200 205 193 188 214 238 255 245 241 201 178 178 191 205
181 183 186 187 190 196 193 195 198 200 198 185 195 192 202 193 193 195 200 198 198 202 202 204 211 200 198 194 198 202 193 180 200 233 249 252 227 203 190 179 223 225
184 186 190 190 195 196 194 199 196 188 188 191 195 190 193 192 194 195 198 204 197 200 206 205 200 194 195 194 196 199 194 178 195 212 233 236 215 203 222 256 226 235